Regional Weather Roundup
Issued by NWS

Home | Current Version | Previous Version | Graphics & Text | Print | Product List | Glossary On
Versions: 1 2 3 4 5 6 7 8 9 10 11 12 13 14 15 16 17 18 19 20 21 22 23 24 25 26 27
000
ASUS45 KTFX 241310
RWRMT
MONTANA REGIONAL WEATHER ROUNDUP
NATIONAL WEATHER SERVICE GREAT FALLS MT
600 AM MST TUE JAN 24 2017

NOTE: "FAIR" INDICATES FEW OR NO CLOUDS BELOW 12000 FEET WITH NO
SIGNIFICANT WEATHER AND/OR OBSTRUCTIONS TO VISIBILITY.

MTZ001>007-043-241400-
WEST OF THE DIVIDE

CITY           SKY/WX    TMP DP  RH WIND       PRES   REMARKS
KALISPELL      CLEAR      3   1  91 W3        29.91R
MISSOULA       CLOUDY    21  15  78 E7        29.90R WCI  12
BUTTE          CLOUDY     7   4  87 CALM      29.77R
MULLAN PASS    FOG       18  17  96 NW3       29.76S VSB 1/4
ANACONDA         N/A      9   5  85 SW3       29.82R
DEER LODGE       N/A      9   5  85 CALM      29.85S
EUREKA           N/A     14  10  85 CALM      29.95R
HAMILTON         N/A     16  12  86 N3        29.86R
RONAN            N/A     19  15  84 CALM      29.92R VSB 0
$$

MTZ008-052>055-241400-
SOUTHWEST MONTANA

CITY           SKY/WX    TMP DP  RH WIND       PRES   REMARKS
BOZEMAN        LGT SNOW  18  14  84 NW5       29.79R FOG
DILLON         CLOUDY    18  12  77 NE8       29.72R WCI   8
W YELLOWSTONE  CLOUDY    18  10  73 N6        29.62R WCI   9
ENNIS          CLOUDY    16  12  86 N17       29.75R WCI   0
TWIN BRIDGES     N/A     18   8  64 N9        29.75R WCI   7
$$

MTZ009-010-012-014-046-048-049-054-241400-
EAST SLOPES AND CENTRAL MONTANA

CITY           SKY/WX    TMP DP  RH WIND       PRES   REMARKS
CUT BANK       CLOUDY    11   8  88 W8        29.83S WCI  -1
GREAT FALLS    PTCLDY     9   7  92 SW7       29.85S WCI  -2
MALMSTROM AFB  MOCLDY    15  13  92 SW6       29.88R WCI   6
HELENA         CLOUDY    10   6  84 SE3       29.86R
BOWMANS CRNR   MOCLDY     9   8  96 SW7       29.81R WCI  -2
CHOTEAU          N/A      9   5  85 SW9       29.86S WCI  -5
CONRAD           N/A     -1  -5  83 NW1       29.86F
POWER          MOCLDY    13  11  92 SW8       29.84S WCI   2
RAYNESFORD       N/A      8   6  91 CALM      29.84S
ULM              N/A      8   7  94 MISG      29.87R
$$

MTZ011-013-016-021-045-047-050-051-241400-
NORTH CENTRAL MONTANA

CITY           SKY/WX    TMP DP  RH WIND       PRES   REMARKS
HAVRE          CLOUDY    19  16  88 NW8       29.90R WCI   9
LEWISTOWN      CLOUDY    16  13  88 W9        29.82R WCI   4
CHINOOK          N/A     18  16  93 NW15      29.90S WCI   3
DENTON         CLOUDY    18  17  95 SW20      29.82R WCI   2
FORT BENTON      N/A     21  16  79 MISG      29.91S
GEYSER           N/A     12  10  89 SW10      29.82S WCI  -1
GRASS RANGE    FLURRIES  18  15  86 W14       29.79S WCI   4
JUDITH GAP     MOCLDY    14  11  90 N17       29.77S WCI  -3
ROY            FLURRIES  19  17  90 MISG      29.81S
STANFORD         N/A     10   9  95 W6        29.81S WCI   1
WINIFRED       FLURRIES  18  17  96 SW9       29.83S WCI   7
$$

MTZ017>020-022>027-061-062-241400-
NORTHEAST MONTANA

CITY           SKY/WX    TMP DP  RH WIND       PRES   REMARKS
GLASGOW        CLOUDY    20  15  81 NW6       29.87S WCI  12
JORDAN           N/A     20  17  88 NW5       29.87S
SIDNEY         FLURRIES  21  17  84 NW9       29.88S WCI  11
WOLF POINT     CLOUDY    21  15  78 W6        29.90S WCI  13
PLENTYWOOD       N/A     18  14  86 W8        29.87R WCI   7
$$

MTZ028>42-056>058-241400-
SOUTHCENTRAL AND SOUTHEAST MONTANA

CITY           SKY/WX    TMP DP  RH WIND       PRES   REMARKS
BAKER          CLOUDY    21  18  88 N6        29.83R WCI  13
BILLINGS       FLURRIES  22  20  92 NE7       29.82R WCI  13
LIVINGSTON     LGT SNOW  18  13  80 NW8       29.77S WCI   8
MILES CITY     CLOUDY    22  17  81 N8        29.87R WCI  12
BIG TIMBER     CLOUDY    19  18  93 NE5       29.81R
FORSYTH          N/A     21  21 100 CALM      29.86R
HARLOWTON      CLOUDY    16  13  87 N15       29.78S WCI   1
LAUREL           N/A     22  17  81 NE6       29.81R WCI  15
$$

REGIONAL REPORTS...DAKOTAS

CITY           SKY/WX    TMP DP  RH WIND       PRES   REMARKS
WILLISTON      CLOUDY    20  15  81 NW9       29.87F WCI   9
MINOT          CLOUDY    24  18  77 W12       29.85R WCI  13
DICKINSON      CLOUDY    20  17  88 NW8       29.81R WCI  10
BEACH          CLOUDY    19  19 100 NW9       29.86S WCI   9
CROSBY         CLOUDY    18  18 100 NW7       29.89R WCI   8
TIOGA          CLOUDY    18  18 100 NW12      29.86S WCI   5
WATFORD CITY   CLOUDY    19  18  93 NW6       29.87S WCI  11
BISMARCK       CLOUDY    25  19  78 NW3       29.88R
GRAND FORKS    CLOUDY    26  20  77 W6        29.87S WCI  19
FARGO          CLOUDY    30  25  81 NW8       29.89R WCI  22
BUFFALO SD       N/A     24  20  84 N12       29.71S WCI  13
RAPID CITY     LGT SNOW  21  19  92 N20       29.73R FOG     WCI   6
$$

REGIONAL REPORTS...WYOMING/IDAHO/WASHINGTON

CITY           SKY/WX    TMP DP  RH WIND       PRES   REMARKS
GILLETTE       LGT SNOW  16  14  92 N12       29.70S VSB 1   WCI   3
SHERIDAN       LGT SNOW  20  18  92 W3        29.78R FOG
BUFFALO WY     LGT SNOW  18  14  84 N18       29.70R FOG     WCI   2
CODY           LGT SNOW  19  14  81 N15       29.69S WCI   5
YELLOWSTONE LA   N/A     14  11  87 CALM      29.57R
IDAHO FALLS    LGT SNOW  23  21  92 W10       29.64S FOG     WCI  12
SALMON         CLOUDY    16  10  79 CALM      29.77R
BOISE          CLOUDY    27  22  81 W13       29.76R WCI  16
SPOKANE        LGT SNOW  29  28  96 SW7       29.93R FOG     WCI  22
$$

REGIONAL REPORTS...ALBERTA

CITY           SKY/WX    TMP DP  RH WIND       PRES   REMARKS
EDMONTON       CLOUDY    16  10  79 SW2       29.88S
CALGARY        FOG       14  10  85 CALM      29.83S VSB 3/8
LETHBRIDGE     CLOUDY    14  12  92 S6        29.88R WCI   5
MEDICINE HAT   CLOUDY    16  14  93 W6        29.92R WCI   7
WATERTON GATE    N/A     18  14  86 SW3         N/A
CARDSTON         N/A     18  12  79 SW3         N/A
MILK RIVER       N/A      5   3  92 W2          N/A
$$

REGIONAL REPORTS...SASKATCHEWAN

CITY           SKY/WX    TMP DP  RH WIND       PRES   REMARKS
SWIFT CURRENT  LGT SNOW  10   9  92 W9        29.83S WCI  -2
REGINA         FLURRIES  14  10  85 NW10      29.87R WCI   1
SASKATOON      FLURRIES   7   3  85 N8        29.93R WCI  -6
CYPRESS HILLS    N/A     10   7  85 NW1         N/A
VAL MARIE        N/A     18  12  79 N7          N/A  WCI   8
ROCKGLEN         N/A     12  10  92 NW8         N/A  WCI   1
ASSINIBOIA       N/A     12  10  92 CALM        N/A
$$




USA.gov is the U.S. government's official web portal to all federal, state and local government web resources and services.